(29) Amphitrite
ephemeris date magn radius delta ra dec elong phase
Today26 Aug 202611.22.716 AU2.489 AU16h03m-27°30'91.8°21.8°
Opposition20 Sep 20278.82.453 AU1.449 AU23h52m-00°36'179.0°0.4°
(29) Amphitrite - 2026-08-26
astro.vanbuitenen.nl


 
-1 year
-1 month
-1 day
Now
+1 day
+1 month
+1 year

The interactive orbit chart above shows the body's path through the solar system and its position at the given date. Green and blue lines are shown perpendicular to the ecliptic plane: Green if the path is above the ecliptic plane, blue if it is below. (Left-click and drag to rotate the view; Right-click and drag to move the view; Use scroll wheel to zoom in our out.)

The orbital elements of Amphitrite are:

            e (Eccentricity)                : 0.0731635
            a (Semimajor axis)              : 2.5545700
            i (Inclination)                 : 6.07707
            Ω (Longitude of ascending node) : 356.25007
            ω (Argument of perihelion)      : 61.93054
            M (Mean anomaly)                : 193.37397
            Epoch                           : 2026 Jun 09

            L (Longitude of perihelion)     : 58.04634
            B (Latitude of perihelion)      : 5.36004
            P (Orbital period in years)     : 4.08            
        

The light curve chart below shows the estimated development of the minor planet's magnitude.


The all-sky chart below shows the path of the minor planet over the same period as the light curve. The current position is marked yellow.





The following chart shows the path of the minor planet in the next few days. The field of view is optimized for (~10x50) binoculars and finderscopes.




Ephemerides:
Date       Time       RA (2000)    DEC (2000)    delta   radius  elong  phase   PA    magn
2026-08-26 00:00 UT   16 03 39.7   -27 30 49     2.489    2.716   91.8   21.8   101   11.2 
2026-08-26 03:05 UT   16 03 46.9   -27 30 52     2.491    2.716   91.7   21.8   101   11.2 
2026-08-27 00:00 UT   16 04 36.4   -27 31 10     2.502    2.716   91.1   21.8   101   11.2 
2026-08-28 00:00 UT   16 05 34.3   -27 31 33     2.515    2.716   90.3   21.8   101   11.2 
2026-08-29 00:00 UT   16 06 33.1   -27 31 58     2.528    2.715   89.6   21.8   101   11.2 
2026-08-30 00:00 UT   16 07 33.1   -27 32 26     2.540    2.715   88.9   21.8   101   11.2 
2026-08-31 00:00 UT   16 08 34.1   -27 32 57     2.553    2.714   88.1   21.8   101   11.2 
2026-09-01 00:00 UT   16 09 36.1   -27 33 29     2.566    2.714   87.4   21.8   101   11.2 
2026-09-02 00:00 UT   16 10 39.1   -27 34 04     2.579    2.714   86.6   21.8   101   11.3 
2026-09-03 00:00 UT   16 11 43.2   -27 34 41     2.591    2.713   85.9   21.8   101   11.3 
2026-09-04 00:00 UT   16 12 48.2   -27 35 19     2.604    2.713   85.2   21.7   101   11.3 
2026-09-05 00:00 UT   16 13 54.2   -27 35 60     2.617    2.712   84.5   21.7   101   11.3 
2026-09-06 00:00 UT   16 15 01.2   -27 36 42     2.630    2.712   83.8   21.7   101   11.3 
2026-09-07 00:00 UT   16 16 09.1   -27 37 26     2.642    2.712   83.0   21.7   101   11.3 
2026-09-08 00:00 UT   16 17 18.0   -27 38 11     2.655    2.711   82.3   21.6   101   11.3 
2026-09-09 00:00 UT   16 18 27.8   -27 38 57     2.668    2.711   81.6   21.6   101   11.3 
2026-09-10 00:00 UT   16 19 38.5   -27 39 45     2.680    2.710   80.9   21.5   101   11.3 
2026-09-11 00:00 UT   16 20 50.2   -27 40 35     2.693    2.710   80.2   21.5   101   11.3 
2026-09-12 00:00 UT   16 22 02.7   -27 41 25     2.706    2.710   79.5   21.4   101   11.3 
2026-09-13 00:00 UT   16 23 16.2   -27 42 16     2.718    2.709   78.8   21.4   101   11.3 
2026-09-14 00:00 UT   16 24 30.5   -27 43 09     2.731    2.709   78.1   21.3   101   11.4 
2026-09-15 00:00 UT   16 25 45.7   -27 44 02     2.743    2.708   77.4   21.3   101   11.4 
2026-09-16 00:00 UT   16 27 01.7   -27 44 55     2.756    2.708   76.7   21.2   100   11.4 
2026-09-17 00:00 UT   16 28 18.5   -27 45 49     2.768    2.707   76.0   21.1   100   11.4 
2026-09-18 00:00 UT   16 29 36.2   -27 46 44     2.781    2.707   75.4   21.0   100   11.4 
2026-09-19 00:00 UT   16 30 54.6   -27 47 39     2.793    2.707   74.7   21.0   100   11.4 
2026-09-20 00:00 UT   16 32 13.9   -27 48 35     2.805    2.706   74.0   20.9   100   11.4 
2026-09-21 00:00 UT   16 33 33.9   -27 49 30     2.817    2.706   73.3   20.8   100   11.4 
2026-09-22 00:00 UT   16 34 54.7   -27 50 26     2.830    2.705   72.6   20.7   100   11.4 
2026-09-23 00:00 UT   16 36 16.3   -27 51 21     2.842    2.705   72.0   20.7   100   11.4 
2026-09-24 00:00 UT   16 37 38.6   -27 52 17     2.854    2.704   71.3   20.6   100   11.4 
2026-09-25 00:00 UT   16 39 01.7   -27 53 12     2.866    2.704   70.6   20.5   100   11.4 


    Terminology:
            
    delta:  distance between minor planet and earth in AU
    radius: distance between minor planet and sun in AU
    magn:   magnitude (brightness) estimate    
    ra:     right ascension in hours (24h = 360deg)
    dec:    declination in degrees
    elong:  elongation in degrees (angle sun-earth-minor planet)    
    phase:  phase angle in degrees (angle sun-minor planet-earth)        
    AU:     Astronomical Unit (mean distance between earth and sun: 149597870.7 km
    

Orbital elements provided by the MPC (Minor Planet Center).
Calculations by a modified version of AAPlus, a C# implementation of the AA+ project by PJ Naughter from the algorithms presented in the book "Astronomical Algorithms" by Jean Meeus.
NGC2000 dso catalog and star labels from VizieR as provided by the Strasbourg astronomical Data Center.
Tycho2 catalog from the ESO archive.